• In Portugal
  • List of Countries
  • For 7 days
  • Water Temperature
  • Satellite Maps
  • Weather Map
  • Weather Widgets
  • user-avatar
    Login

    Hourly Weather Homyakova

    Today, 22 September, Saturday

    Time Temperature Precipitation Wind Pressure Humidity
    00:00 +17°C° 0 mm 2 mps 745 mmHg 82%
    01:00 +17°C° 0 mm 2 mps 745 mmHg 82%
    02:00 +17°C° 0 mm 2 mps 745 mmHg 80%
    03:00 +16°C° 0 mm 2 mps 745 mmHg 80%
    04:00 +16°C° 0 mm 2 mps 745 mmHg 79%
    05:00 +16°C° 0 mm 2 mps 745 mmHg 79%
    06:00 +17°C° 0 mm 3 mps 744 mmHg 74%
    07:00 +19°C° 0 mm 3 mps 744 mmHg 70%
    08:00 +20°C° 0 mm 4 mps 744 mmHg 63%
    09:00 +21°C° 0 mm 4 mps 744 mmHg 59%
    10:00 +23°C° 0 mm 5 mps 744 mmHg 55%
    11:00 +26°C° 0 mm 5 mps 744 mmHg 51%
    12:00 +26°C° 0 mm 5 mps 743 mmHg 50%
    13:00 +27°C° 0 mm 6 mps 743 mmHg 48%
    14:00 +28°C° 0 mm 5 mps 742 mmHg 46%
    15:00 +26°C° 0 mm 4 mps 741 mmHg 51%
    16:00 +25°C° 0 mm 4 mps 741 mmHg 56%
    17:00 +23°C° 0 mm 4 mps 740 mmHg 61%
    18:00 +22°C° 0 mm 4 mps 740 mmHg 61%
    19:00 +21°C° 0 mm 4 mps 740 mmHg 61%
    20:00 +20°C° 0 mm 4 mps 739 mmHg 61%
    21:00 +20°C° 0 mm 4 mps 739 mmHg 61%
    22:00 +19°C° 0 mm 4 mps 739 mmHg 61%
    23:00 +19°C° 0 mm 4 mps 738 mmHg 60%

    Tomorrow, 23 September, Sunday

    Time Temperature Precipitation Wind Pressure Humidity
    00:00 +18°C° 0.1 mm 4 mps 738 mmHg 63%
    01:00 +17°C° 0.1 mm 4 mps 738 mmHg 67%
    02:00 +17°C° 0.1 mm 4 mps 738 mmHg 70%
    03:00 +14°C° 0.6 mm 5 mps 738 mmHg 76%
    04:00 +12°C° 0.6 mm 5 mps 738 mmHg 82%
    05:00 +9°C° 0.6 mm 5 mps 738 mmHg 88%
    06:00 +9°C° 0.9 mm 5 mps 738 mmHg 88%
    07:00 +9°C° 0.9 mm 5 mps 739 mmHg 87%
    08:00 +8°C° 0.9 mm 5 mps 739 mmHg 87%
    09:00 +10°C° 0 mm 4 mps 739 mmHg 84%
    10:00 +11°C° 0 mm 4 mps 740 mmHg 81%
    11:00 +11°C° 0 mm 4 mps 740 mmHg 78%
    12:00 +12°C° 0.1 mm 4 mps 740 mmHg 74%
    13:00 +13°C° 0.1 mm 4 mps 740 mmHg 70%
    14:00 +14°C° 0.1 mm 4 mps 741 mmHg 65%
    15:00 +13°C° 0.1 mm 3 mps 740 mmHg 68%
    16:00 +13°C° 0.1 mm 3 mps 740 mmHg 71%
    17:00 +13°C° 0.1 mm 2 mps 740 mmHg 74%
    18:00 +12°C° 0 mm 2 mps 740 mmHg 78%
    19:00 +10°C° 0 mm 3 mps 741 mmHg 82%
    20:00 +9°C° 0 mm 3 mps 741 mmHg 86%
    21:00 +9°C° 0 mm 3 mps 741 mmHg 87%
    22:00 +8°C° 0 mm 3 mps 741 mmHg 88%
    23:00 +8°C° 0 mm 3 mps 741 mmHg 89%

    Day after tomorrow, 24 September, Monday

    Time Temperature Precipitation Wind Pressure Humidity
    00:00 +8°C° 0 mm 3 mps 741 mmHg 89%
    01:00 +8°C° 0 mm 2 mps 741 mmHg 89%
    02:00 +7°C° 0 mm 2 mps 741 mmHg 89%
    03:00 +8°C° 0 mm 3 mps 740 mmHg 87%
    04:00 +8°C° 0 mm 3 mps 740 mmHg 84%
    05:00 +8°C° 0 mm 3 mps 740 mmHg 82%
    06:00 +8°C° 0.1 mm 4 mps 739 mmHg 79%
    07:00 +10°C° 0.1 mm 4 mps 739 mmHg 77%
    08:00 +10°C° 0.1 mm 5 mps 738 mmHg 74%
    09:00 +9°C° 0.9 mm 5 mps 738 mmHg 77%
    10:00 +9°C° 0.9 mm 6 mps 737 mmHg 80%
    11:00 +9°C° 0.9 mm 6 mps 736 mmHg 83%
    12:00 +9°C° 1.7 mm 7 mps 735 mmHg 84%
    13:00 +9°C° 1.7 mm 8 mps 734 mmHg 86%
    14:00 +8°C° 1.7 mm 9 mps 732 mmHg 88%
    15:00 +8°C° 1.7 mm 9 mps 731 mmHg 88%
    16:00 +10°C° 1.7 mm 9 mps 729 mmHg 89%
    17:00 +11°C° 1.7 mm 9 mps 727 mmHg 90%
    18:00 +11°C° 0.6 mm 9 mps 727 mmHg 88%
    19:00 +11°C° 0.6 mm 9 mps 726 mmHg 87%
    20:00 +10°C° 0.6 mm 9 mps 726 mmHg 85%
    21:00 +8°C° 0 mm 9 mps 727 mmHg 85%
    22:00 +7°C° 0 mm 8 mps 727 mmHg 84%
    23:00 +6°C° 0 mm 8 mps 728 mmHg 84%

    25 September, Tuesday

    Time Temperature Precipitation Wind Pressure Humidity
    00:00 +6°C° 0 mm 8 mps 729 mmHg 84%
    01:00 +6°C° 0 mm 7 mps 730 mmHg 84%
    02:00 +6°C° 0 mm 7 mps 731 mmHg 84%
    03:00 +6°C° 0.1 mm 7 mps 731 mmHg 84%
    04:00 +6°C° 0.1 mm 7 mps 732 mmHg 85%
    05:00 +6°C° 0.1 mm 7 mps 732 mmHg 85%
    06:00 +6°C° 0.1 mm 7 mps 733 mmHg 84%
    07:00 +6°C° 0.1 mm 7 mps 733 mmHg 82%
    08:00 +6°C° 0.1 mm 7 mps 734 mmHg 80%
    09:00 +6°C° 0 mm 7 mps 735 mmHg 79%
    10:00 +5°C° 0 mm 7 mps 736 mmHg 79%
    11:00 +5°C° 0 mm 7 mps 736 mmHg 78%
    12:00 +5°C° 0 mm 7 mps 737 mmHg 77%
    13:00 +5°C° 0 mm 7 mps 737 mmHg 76%
    14:00 +5°C° 0 mm 6 mps 738 mmHg 75%
    15:00 +5°C° 0 mm 6 mps 739 mmHg 75%
    16:00 +5°C° 0 mm 6 mps 739 mmHg 75%
    17:00 +6°C° 0 mm 5 mps 740 mmHg 75%
    18:00 +6°C° 0 mm 5 mps 740 mmHg 76%
    19:00 +5°C° 0 mm 4 mps 741 mmHg 78%
    20:00 +5°C° 0 mm 4 mps 741 mmHg 79%
    21:00 +4°C° 0 mm 4 mps 742 mmHg 79%
    22:00 +4°C° 0 mm 4 mps 742 mmHg 78%
    23:00 +4°C° 0 mm 4 mps 743 mmHg 78%

    26 September, Wednesday

    Time Temperature Precipitation Wind Pressure Humidity
    00:00 +4°C° 0 mm 4 mps 744 mmHg 79%
    01:00 +3°C° 0 mm 4 mps 744 mmHg 80%
    02:00 +3°C° 0 mm 4 mps 745 mmHg 81%
    03:00 +3°C° 0 mm 4 mps 746 mmHg 80%
    04:00 +1°C° 0 mm 4 mps 746 mmHg 80%
    05:00 +1°C° 0 mm 4 mps 747 mmHg 80%
    06:00 +1°C° 0 mm 4 mps 747 mmHg 76%
    07:00 +3°C° 0 mm 4 mps 748 mmHg 72%
    08:00 +3°C° 0 mm 5 mps 748 mmHg 68%
    09:00 +5°C° 0 mm 5 mps 749 mmHg 63%
    10:00 +7°C° 0 mm 5 mps 749 mmHg 58%
    11:00 +8°C° 0 mm 5 mps 749 mmHg 53%
    12:00 +9°C° 0 mm 6 mps 749 mmHg 52%
    13:00 +9°C° 0 mm 6 mps 748 mmHg 50%
    14:00 +10°C° 0 mm 6 mps 748 mmHg 49%
    15:00 +9°C° 0 mm 5 mps 748 mmHg 54%
    16:00 +8°C° 0 mm 5 mps 748 mmHg 59%
    17:00 +8°C° 0 mm 4 mps 747 mmHg 64%
    18:00 +8°C° 0 mm 5 mps 747 mmHg 66%
    19:00 +8°C° 0 mm 5 mps 747 mmHg 68%
    20:00 +7°C° 0 mm 5 mps 747 mmHg 70%
    21:00 +7°C° 0.1 mm 6 mps 746 mmHg 73%
    22:00 +7°C° 0.1 mm 6 mps 746 mmHg 76%
    23:00 +6°C° 0.1 mm 7 mps 745 mmHg 79%

    27 September, Thursday

    Time Temperature Precipitation Wind Pressure Humidity
    00:00 +6°C° 0.3 mm 7 mps 744 mmHg 79%
    01:00 +5°C° 0.3 mm 7 mps 744 mmHg 79%
    02:00 +5°C° 0.3 mm 8 mps 743 mmHg 80%
    03:00 +5°C° 0.2 mm 8 mps 742 mmHg 79%
    04:00 +5°C° 0.2 mm 8 mps 742 mmHg 79%
    05:00 +5°C° 0.2 mm 8 mps 741 mmHg 79%
    06:00 +5°C° 0.1 mm 8 mps 741 mmHg 80%
    07:00 +5°C° 0.1 mm 8 mps 741 mmHg 81%
    08:00 +5°C° 0.1 mm 8 mps 740 mmHg 82%
    09:00 +6°C° 0.1 mm 8 mps 740 mmHg 82%
    10:00 +6°C° 0.1 mm 8 mps 740 mmHg 83%
    11:00 +7°C° 0.1 mm 8 mps 740 mmHg 83%
    12:00 +7°C° 0.5 mm 8 mps 739 mmHg 84%
    13:00 +7°C° 0.5 mm 8 mps 739 mmHg 86%
    14:00 +7°C° 0.5 mm 8 mps 738 mmHg 87%
    15:00 +7°C° 0.4 mm 8 mps 738 mmHg 88%
    16:00 +8°C° 0.4 mm 7 mps 737 mmHg 88%
    17:00 +8°C° 0.4 mm 7 mps 737 mmHg 89%
    18:00 +8°C° 0.3 mm 7 mps 737 mmHg 89%
    19:00 +9°C° 0.3 mm 7 mps 737 mmHg 89%
    20:00 +9°C° 0.3 mm 7 mps 736 mmHg 89%
    21:00 +9°C° 0.3 mm 7 mps 736 mmHg 88%
    22:00 +10°C° 0.3 mm 8 mps 736 mmHg 87%
    23:00 +10°C° 0.3 mm 8 mps 736 mmHg 87%
    Show more